Wink, TX

2:37 PM CDT on July 26, 2017 (GMT -0500)
Winkler County

Weather History for KINK - September, 2012

Change the Weather History Date:

Thursday, September 13, 2012

  Actual Average Record
Temperature  
Mean Temperature 67 °F -  
Max Temperature 78 °F 88 °F 102 °F (2005)
Min Temperature 59 °F 63 °F 47 °F (1959)
Cooling Degree Days 2    
Growing Degree Days 17 (Base 50)    
Moisture  
Dew Point 57 °F    
Average Humidity 79    
Maximum Humidity 94    
Minimum Humidity 50    
Precipitation  
Precipitation 0.00 in - - ()
Sea Level Pressure  
Sea Level Pressure 30.13 in    
Wind  
Wind Speed 15 mph (NNE)    
Max Wind Speed 29 mph    
Max Gust Speed 39 mph    
Visibility 9 miles    
Events Rain    
Averages and records for this station are not official NWS values.
T = Trace of Precipitation, MM = Missing Value Source: NWS Daily Summary

Daily Weather History Graph

Daily Weather History Graph

Search for Another Location

Airport or City:

Trip Planner

Search our weather history database for the weather conditions in past years. The results will help you decide how hot, cold, wet, or windy it might be!

Date:

Astronomy

Sep. 13, 2012 Rise Set
Actual Time 7:35 AM CDT 8:00 PM CDT
Civil Twilight 7:11 AM CDT 8:24 PM CDT
Nautical Twilight 6:42 AM CDT 8:53 PM CDT
Astronomical Twilight 6:13 AM CDT 9:22 PM CDT
Moon 5:04 AM CDT (9/13) 6:20 PM CDT (9/13)
Length of Visible Light 13h 13m
Length of Day
12h 24m
Waning Crescent, 7% of the Moon is Illuminated
Sep 13
Waning Crescent
Sep 15
New
Sep 22
First Quarter
Sep 29
Full
Oct 8
Last Quarter

Hourly Weather History & Observations

Time (CDT) Temp. Dew Point Humidity Pressure Visibility Wind Dir Wind Speed Gust Speed Precip Events Conditions
12:53 AM 69.1 °F 63.0 °F 81% 29.94 in 10.0 mi South 10.4 mph - 0.00 in   Partly Cloudy
1:53 AM 75.9 °F 55.9 °F 50% 29.86 in 10.0 mi SSE 28.8 mph 39.1 mph N/A   Squalls
2:51 AM 69.8 °F 62.6 °F 78% 30.06 in 10.0 mi NNW 12.7 mph - N/A   Clear
2:53 AM 70.0 °F 63.0 °F 78% 29.93 in 10.0 mi NNW 13.8 mph - N/A   Clear
3:53 AM 69.1 °F 62.1 °F 78% 29.94 in 10.0 mi North 9.2 mph - N/A   Clear
4:53 AM 66.9 °F 62.1 °F 84% 29.94 in 10.0 mi NNE 21.9 mph 26.5 mph N/A   Scattered Clouds
5:53 AM 63.0 °F 57.9 °F 84% 30.00 in 10.0 mi North 16.1 mph - N/A   Mostly Cloudy
6:08 AM 62.6 °F 57.2 °F 82% 30.13 in 10.0 mi NNE 16.1 mph 25.3 mph N/A   Overcast
6:53 AM 62.1 °F 57.0 °F 84% 30.04 in 10.0 mi North 12.7 mph - N/A   Overcast
7:53 AM 62.1 °F 57.0 °F 84% 30.08 in 10.0 mi NNE 12.7 mph - N/A   Overcast
8:53 AM 63.0 °F 55.9 °F 78% 30.09 in 10.0 mi North 16.1 mph - N/A   Overcast
9:53 AM 62.1 °F 55.9 °F 80% 30.13 in 10.0 mi North 11.5 mph 21.9 mph N/A   Overcast
10:53 AM 63.0 °F 55.9 °F 78% 30.16 in 10.0 mi North 15.0 mph - N/A   Overcast
11:46 AM 64.4 °F 55.4 °F 73% 30.27 in 10.0 mi NNE 16.1 mph - N/A   Overcast
11:53 AM 64.0 °F 55.9 °F 75% 30.17 in 10.0 mi NNE 15.0 mph - N/A   Overcast
12:53 PM 64.9 °F 55.9 °F 73% 30.17 in 10.0 mi NNE 19.6 mph 24.2 mph N/A   Overcast
1:53 PM 64.0 °F 55.0 °F 73% 30.17 in 10.0 mi NNE 15.0 mph 24.2 mph N/A   Overcast
2:53 PM 63.0 °F 55.0 °F 75% 30.17 in 10.0 mi NNE 16.1 mph 23.0 mph N/A   Overcast
3:45 PM 60.8 °F 57.2 °F 88% 30.26 in 2.5 mi NNE 13.8 mph - 0.00 in Rain Light Rain
3:53 PM 61.0 °F 55.9 °F 83% 30.17 in 6.0 mi NE 13.8 mph - 0.00 in   Haze
4:49 PM 59.0 °F 57.2 °F 94% 30.26 in 3.0 mi North 11.5 mph - 0.00 in   Overcast
4:53 PM 60.1 °F 57.0 °F 90% 30.18 in 3.0 mi North 10.4 mph - 0.00 in   Overcast
5:53 PM 60.1 °F 57.0 °F 90% 30.19 in 4.0 mi North 13.8 mph - N/A   Overcast
6:53 PM 61.0 °F 55.9 °F 83% 30.19 in 10.0 mi North 12.7 mph - N/A   Overcast
7:53 PM 62.1 °F 55.0 °F 78% 30.20 in 10.0 mi NNE 11.5 mph - N/A   Overcast
8:53 PM 62.1 °F 54.0 °F 75% 30.23 in 10.0 mi North 15.0 mph - N/A   Overcast
9:53 PM 62.1 °F 53.1 °F 72% 30.27 in 10.0 mi NNE 11.5 mph - N/A   Overcast
10:53 PM 62.1 °F 52.0 °F 70% 30.28 in 10.0 mi NE 11.5 mph - N/A   Overcast
11:53 PM 62.1 °F 52.0 °F 70% 30.29 in 10.0 mi NNE 8.1 mph - N/A   Overcast